Location: Corralito
(10.2667°N, 66.9500°W)
Time: 08:51:21
(UTC+00:00)

Haruka - Pass Details

Date: 02 December 2023
Orbit: 529 x 21179 km, 31.2° (Epoch: 24 February)

Event Time Altitude Azimuth Distance (km) Brightness Sun altitude
Rises 07:59:42 0° 223° (SW) 8,749 8.2 -35.6°
Reaches altitude 10° 08:10:46 10° 203° (SSW) 4,668 7.0 -33.0°
Maximum altitude 08:15:56 14° 173° (S) 2,956 6.2 -31.8°
Drops below altitude 10° 08:19:01 10° 139° (SE) 2,542 6.4 -31.1°
Sets 08:21:52 0° 110° (ESE) 2,935 7.2 -30.4°
